<?xml version="1.0" encoding="UTF-8" standalone="no" ?>
<gpx xmlns="http://www.topografix.com/GPX/1/1" xmlns:xsi="http://www.w3.org/2001/XMLSchema-instance" xsi:schemaLocation="http://www.topografix.com/GPX/1/1 http://www.topografix.com/GPX/1/1/gpx.xsd" version="1.1" creator="VisuGPX - https://www.visugpx.com">
  <metadata>
    <name>La ratelle</name>
    <desc><![CDATA[Départ de crevoux]]></desc>
  </metadata>
  <trk>
    <name><![CDATA[track]]></name>
    <trkseg>
      <trkpt lat="44.54467" lon="6.63245">
        <ele>1664</ele>
        <time>2007-02-09T15:47:27Z</time>
      </trkpt>
      <trkpt lat="44.54404" lon="6.63247">
        <ele>1689.5</ele>
        <time>2007-02-09T15:47:27Z</time>
      </trkpt>
      <trkpt lat="44.54308" lon="6.6334">
        <ele>1721.9</ele>
        <time>2007-02-09T15:47:27Z</time>
      </trkpt>
      <trkpt lat="44.54199" lon="6.63464">
        <ele>1755.8</ele>
        <time>2007-02-09T15:47:27Z</time>
      </trkpt>
      <trkpt lat="44.54083" lon="6.63565">
        <ele>1790.9</ele>
        <time>2007-02-09T15:47:27Z</time>
      </trkpt>
      <trkpt lat="44.54038" lon="6.63565">
        <ele>1807.7</ele>
        <time>2007-02-09T15:47:27Z</time>
      </trkpt>
      <trkpt lat="44.5399" lon="6.63643">
        <ele>1815.9</ele>
        <time>2007-02-09T15:47:27Z</time>
      </trkpt>
      <trkpt lat="44.53909" lon="6.63741">
        <ele>1829.7</ele>
        <time>2007-02-09T15:47:27Z</time>
      </trkpt>
      <trkpt lat="44.53843" lon="6.63764">
        <ele>1851.7</ele>
        <time>2007-02-09T15:47:27Z</time>
      </trkpt>
      <trkpt lat="44.53851" lon="6.63683">
        <ele>1857</ele>
        <time>2007-02-09T15:47:27Z</time>
      </trkpt>
      <trkpt lat="44.53808" lon="6.63683">
        <ele>1871.5</ele>
        <time>2007-02-09T15:47:27Z</time>
      </trkpt>
      <trkpt lat="44.53776" lon="6.63684">
        <ele>1881.2</ele>
        <time>2007-02-09T15:47:27Z</time>
      </trkpt>
      <trkpt lat="44.5366" lon="6.63656">
        <ele>1904.9</ele>
        <time>2007-02-09T15:47:27Z</time>
      </trkpt>
      <trkpt lat="44.53576" lon="6.63637">
        <ele>1923.1</ele>
        <time>2007-02-09T15:47:27Z</time>
      </trkpt>
      <trkpt lat="44.5346" lon="6.63603">
        <ele>1954.6</ele>
        <time>2007-02-09T15:47:27Z</time>
      </trkpt>
      <trkpt lat="44.53385" lon="6.63569">
        <ele>1969.7</ele>
        <time>2007-02-09T15:47:27Z</time>
      </trkpt>
      <trkpt lat="44.53278" lon="6.63532">
        <ele>1981.5</ele>
        <time>2007-02-09T15:47:27Z</time>
      </trkpt>
      <trkpt lat="44.53147" lon="6.63478">
        <ele>2000.2</ele>
        <time>2007-02-09T15:47:27Z</time>
      </trkpt>
      <trkpt lat="44.53054" lon="6.63439">
        <ele>2021.5</ele>
        <time>2007-02-09T15:47:27Z</time>
      </trkpt>
      <trkpt lat="44.52969" lon="6.6342">
        <ele>2046.7</ele>
        <time>2007-02-09T15:47:27Z</time>
      </trkpt>
      <trkpt lat="44.52896" lon="6.63386">
        <ele>2078.3</ele>
        <time>2007-02-09T15:47:27Z</time>
      </trkpt>
      <trkpt lat="44.52846" lon="6.63348">
        <ele>2098.8</ele>
        <time>2007-02-09T15:47:27Z</time>
      </trkpt>
      <trkpt lat="44.52778" lon="6.63302">
        <ele>2122.2</ele>
        <time>2007-02-09T15:47:27Z</time>
      </trkpt>
      <trkpt lat="44.52699" lon="6.63255">
        <ele>2134.6</ele>
        <time>2007-02-09T15:47:27Z</time>
      </trkpt>
      <trkpt lat="44.52619" lon="6.63227">
        <ele>2152.6</ele>
        <time>2007-02-09T15:47:27Z</time>
      </trkpt>
      <trkpt lat="44.52454" lon="6.63236">
        <ele>2181.4</ele>
        <time>2007-02-09T15:47:27Z</time>
      </trkpt>
      <trkpt lat="44.52322" lon="6.63229">
        <ele>2205</ele>
        <time>2007-02-09T15:47:27Z</time>
      </trkpt>
      <trkpt lat="44.52186" lon="6.62548">
        <ele>2340.6</ele>
        <time>2007-02-09T15:47:27Z</time>
      </trkpt>
      <trkpt lat="44.5219" lon="6.62388">
        <ele>2377.2</ele>
        <time>2007-02-09T15:47:27Z</time>
      </trkpt>
      <trkpt lat="44.5216" lon="6.62238">
        <ele>2417.8</ele>
        <time>2007-02-09T15:47:27Z</time>
      </trkpt>
      <trkpt lat="44.52088" lon="6.62179">
        <ele>2448.6</ele>
        <time>2007-02-09T15:47:27Z</time>
      </trkpt>
      <trkpt lat="44.51958" lon="6.62169">
        <ele>2492.2</ele>
        <time>2007-02-09T15:47:27Z</time>
      </trkpt>
      <trkpt lat="44.51762" lon="6.62107">
        <ele>2556.7</ele>
        <time>2007-02-09T15:47:27Z</time>
      </trkpt>
      <trkpt lat="44.51653" lon="6.6218">
        <ele>2548</ele>
        <time>2007-02-09T15:47:27Z</time>
      </trkpt>
      <trkpt lat="44.51526" lon="6.62268">
        <ele>2564.4</ele>
        <time>2007-02-09T15:47:27Z</time>
      </trkpt>
      <trkpt lat="44.51403" lon="6.62366">
        <ele>2544.7</ele>
        <time>2007-02-09T15:47:27Z</time>
      </trkpt>
      <trkpt lat="44.51333" lon="6.6243">
        <ele>2544.2</ele>
        <time>2007-02-09T15:47:27Z</time>
      </trkpt>
    </trkseg>
  </trk>
</gpx>